This demonstration page uses our WeatherBlox Daily Observations layout. Learn more.

Left ArrowRight Arrow

Hourly Observations for June 30, 2017

Temp ( °F °C ) Dew Point ( °F °C ) Humidity (%) Winds ( mph kmh ) Pressure ( in mb ) Visibility ( mi km ) Precip ( " mm )
12:53 am 00:53 Clear 50 10 40 4.4 68 68 ESE 5 7 30.13 1020 10 16 0.00 0.00
1:53 am 01:53 Clear 53 11.7 38 3.3 57 57 SE 6 9 30.12 1020 10 16 0.00 0.00
2:53 am 02:53 Clear 49 9.4 38 3.3 66 66 Calm 30.10 1019 10 16 0.00 0.00
3:53 am 03:53 Clear 44 6.7 39 3.9 83 83 WSW 7 11 30.11 1020 10 16 0.00 0.00
4:53 am 04:53 Clear 45 7.2 38 3.3 77 77 WSW 3 6 30.11 1020 10 16 0.00 0.00
5:53 am 05:53 Sunny 44 6.7 40 4.4 85 85 WSW 7 11 30.11 1020 10 16 0.00 0.00
6:53 am 06:53 Sunny 48 8.9 42 5.6 80 80 Calm 30.10 1019 10 16 0.00 0.00
7:53 am 07:53 Sunny 53 11.7 41 5 64 64 Calm 30.10 1019 10 16 0.00 0.00
8:53 am 08:53 Sunny 59 15 41 5 51 51 VRB 3 6 30.08 1019 10 16 0.00 0.00
9:53 am 09:53 Sunny 65 18.3 42 5.6 43 43 VRB 3 6 30.06 1018 10 16 0.00 0.00
10:53 am 10:53 Sunny 72 22.2 44 6.7 37 37 WSW 5 7 30.04 1017 10 16 0.00 0.00
11:53 am 11:53 Sunny 75 23.9 44 6.7 33 33 WSW 7 11 30.03 1017 10 16 0.00 0.00
12:53 pm 12:53 Sunny 77 25 44 6.7 31 31 SW 9 15 30.01 1016 10 16 0.00 0.00
1:53 pm 13:53 Sunny 82 27.8 45 7.2 27 27 W 10 17 29.97 1015 10 16 0.00 0.00
2:53 pm 14:53 Mostly Sunny 82 27.8 43 6.1 25 25 NNW 12 19 29.96 1015 10 16 0.00 0.00
3:53 pm 15:53 Sunny 83 28.3 41 5 23 23 WNW 12 19 29.96 1015 10 16 0.00 0.00
4:53 pm 16:53 Mostly Sunny 83 28.3 43 6.1 24 24 W 7 11 29.95 1014 10 16 0.00 0.00
5:53 pm 17:53 Sunny 85 29.4 42 5.6 22 22 VRB 5 7 29.93 1013 10 16 0.00 0.00
6:53 pm 18:53 Mostly Sunny 85 29.4 37 2.8 18 18 N 8 13 29.92 1013 10 16 0.00 0.00
7:53 pm 19:53 Sunny 83 28.3 40 4.4 22 22 NW 5 7 29.91 1013 10 16 0.00 0.00
8:53 pm 20:53 Sunny 78 25.6 42 5.6 28 28 NNW 3 6 29.90 1013 10 16 0.00 0.00
9:53 pm 21:53 Clear 66 18.9 47 8.3 50 50 Calm 29.91 1013 10 16 0.00 0.00
10:53 pm 22:53 Clear 60 15.6 48 8.9 65 65 SSE 6 9 29.91 1013 10 16 0.00 0.00
11:53 pm 23:53 Clear 59 15 47 8.3 64 64 S 5 7 29.91 1013 10 16 0.00 0.00

Powered by AerisWeather